Location: Audinghen
(50.8518°N, 1.6129°E)
Time: 15:06:49
(UTC+00:00)

COBE Rocket - Pass Details

Date: 07 August 2020
Orbit: 681 x 781 km, 97.1° (Epoch: 18 September)

Event Time Altitude Azimuth Distance (km) Brightness Sun altitude
Exits shadow 01:47:32 20° 152° (SSE) 1,573 5.3 -18.8°
Maximum altitude 01:50:44 68° 73° (ENE) 742 4.0 -18.5°
Drops below altitude 10° 01:55:22 10° 352° (N) 2,136 7.1 -18.2°
Sets 01:57:37 0° 350° (N) 3,057 7.9 -18.0°
